Regional Weather Roundup
Issued by NWS

Home | Current Version | Previous Version | Text Only | Print | Product List | Glossary Off
Versions: 1 2 3 4 5 6 7 8 9 10 11 12 13 14 15 16 17 18 19 20 21 22 23 24 25 26 27 28 29 30 31 32 33 34 35 36 37 38 39 40 41 42 43 44 45 46 47 48 49 50

000
ASUS43 KOAX 290810
RWRNE

WEATHER ROUNDUP FOR NEBRASKA
NATIONAL WEATHER SERVICE OMAHA NE
300 AM CDT FRI AUG 29 2014

NOTES: SATELLITE DATA IS BEING USED TO AUGMENT CLOUD COVER ABOVE
       12000 FEET.
       "FAIR" INDICATES FEW OR NO CLOUDS BELOW 12,000 FEET WITH NO
       SIGNIFICANT WEATHER AND/OR OBSTRUCTIONS TO VISIBILITY.

  * THESE STATIONS DO NOT REPORT WEATHER SUCH AS RAIN...SNOW OR FOG.

NEZ001>004-019>022-054>056-290900-
NEBRASKA PANHANDLE

CITY           SKY/WX    TMP DP  RH WIND       PRES   REMARKS
SCOTTSBLUFF    CLEAR     51  50  96 NW5       29.99F
ALLIANCE       CLEAR     52  50  93 W8        29.96F
CHADRON        CLEAR     55  53  93 W7        29.92F
KIMBALL        CLEAR     53  50  89 W8        30.03F
SIDNEY         CLEAR     57  50  77 NW12      30.02F
$$

NEZ057>060-069>072-079>082-290900-
SOUTHWEST NEBRASKA

CITY           SKY/WX    TMP DP  RH WIND       PRES   REMARKS
NORTH PLATTE   CLEAR     57  55  93 NW6       29.91F
IMPERIAL       CLEAR     58  53  84 NW9       29.94F
LEXINGTON      MOCLDY    63  61  94 W8        29.87F
MCCOOK         PTCLDY    59  56  89 SW6       29.91F
OGALLALA       CLEAR     54  52  94 SW3       29.94F
$$

NEZ005>010-023>029-035>040-094-290900-
NORTH CENTRAL NEBRASKA

CITY           SKY/WX    TMP DP  RH WIND       PRES   REMARKS
VALENTINE      PTCLDY    62  61  96 W6        29.87F
AINSWORTH      CLOUDY    60  59  96 NW5       29.87F
BROKEN BOW     CLOUDY    65  61  87 NW10      29.87S
O`NEILL        MOCLDY    64  63  97 W7        29.83F
ORD            CLOUDY    64  63  96 NW8       29.83F
THEDFORD       PTCLDY    58  55  92 W3        29.91F
$$

NEZ041-046>049-061>064-073>077-083>087-290900-
SOUTH CENTRAL NEBRASKA

CITY           SKY/WX    TMP DP  RH WIND       PRES   REMARKS
GRAND ISLAND   CLOUDY    69  66  90 CALM      29.82F FOG
AURORA         CLOUDY    68  67  98 CALM      29.81F
HASTINGS       CLOUDY    67  62  84 CALM      29.82F
HEBRON         CLOUDY    71  65  80 S8        29.83S
HOLDREGE       CLOUDY    64  62  93 CALM      29.85S
KEARNEY *      CLOUDY    64  63  94 W7        29.84F
YORK           MOCLDY    68 N/A N/A S7        29.82S
$$

NEZ011>018-030>034-042>045-290900-
NORTHEAST NEBRASKA

CITY           SKY/WX    TMP DP  RH WIND       PRES   REMARKS
NORFOLK        MOCLDY    69  66  90 SE7       29.79S
ALBION         CLOUDY    65  63  94 CALM      29.82R
BLAIR          MOCLDY    74  70  88 SE12G17   29.82F
FREMONT        MOCLDY    73  69  86 SE9       29.81S
TEKAMAH        CLOUDY    72  69  90 S6        29.80F
WAYNE          CLOUDY    69  67  93 CALM      29.79F
$$

NEZ050>053-065>068-078-088>093-290900-
SOUTHEAST NEBRASKA

CITY           SKY/WX    TMP DP  RH WIND       PRES   REMARKS
LINCOLN        CLOUDY    74  68  81 SW6       29.82F THUNDER
OMAHA EPPLEY   TSTM      74  70  87 SE16      29.83R
BEATRICE       MOCLDY    70  68  93 S5        29.83F
FALLS CITY     MOCLDY    74  70  87 SE6       29.81F
NEBRASKA CITY  MOCLDY    70  70 100 W3        29.83F
PLATTSMOUTH    MOCLDY    71  68  89 SE5       29.83F
$$

NEZ044-045-051>053-067-290900-
OMAHA AREA

CITY           SKY/WX    TMP DP  RH WIND       PRES   REMARKS
OMAHA EPPLEY   TSTM      74  70  87 SE16      29.83R
BLAIR          MOCLDY    74  70  88 SE12G17   29.82F
FREMONT        MOCLDY    73  69  86 SE9       29.81S
MILLARD        MOCLDY    73  69  88 SE7       29.81F
OFFUTT AFB     MOCLDY    70  70 100 E5        29.82F
PLATTSMOUTH    MOCLDY    71  68  89 SE5       29.83F
WAHOO          FAIR      71  67  88 SE8       29.80F
$$


USA.gov is the U.S. government's official web portal to all federal, state and local government web resources and services.